EN

Hourly Weather Dziewczopolko

Today, 29 October, Thursday

Time Temperature Precipitation Wind Pressure Humidity
00:00 +9°C° 0 mm 3 mps 749 mmHg 82%
01:00 +9°C° 0 mm 3 mps 749 mmHg 83%
02:00 +9°C° 0 mm 3 mps 748 mmHg 85%
03:00 +8°C° 0 mm 3 mps 748 mmHg 86%
04:00 +8°C° 0 mm 3 mps 748 mmHg 87%
05:00 +8°C° 0 mm 3 mps 748 mmHg 88%
06:00 +8°C° 0 mm 3 mps 748 mmHg 88%
07:00 +8°C° 0 mm 3 mps 748 mmHg 88%
08:00 +8°C° 0 mm 4 mps 748 mmHg 83%
09:00 +9°C° 0 mm 5 mps 748 mmHg 77%
10:00 +11°C° 0 mm 6 mps 747 mmHg 71%
11:00 +10°C° 0.1 mm 5 mps 747 mmHg 74%
12:00 +10°C° 0.1 mm 5 mps 747 mmHg 78%
13:00 +9°C° 0.1 mm 5 mps 747 mmHg 81%
14:00 +9°C° 0.2 mm 5 mps 747 mmHg 80%
15:00 +9°C° 0.2 mm 5 mps 748 mmHg 78%
16:00 +10°C° 0.2 mm 4 mps 748 mmHg 76%
17:00 +8°C° 0 mm 4 mps 748 mmHg 77%
18:00 +8°C° 0 mm 5 mps 749 mmHg 77%
19:00 +7°C° 0 mm 5 mps 749 mmHg 78%
20:00 +7°C° 0 mm 5 mps 749 mmHg 77%
21:00 +7°C° 0 mm 5 mps 750 mmHg 76%
22:00 +7°C° 0 mm 6 mps 750 mmHg 74%
23:00 +7°C° 0 mm 6 mps 750 mmHg 77%

Tomorrow, 30 October, Friday

Time Temperature Precipitation Wind Pressure Humidity
00:00 +7°C° 0 mm 6 mps 750 mmHg 80%
01:00 +5°C° 0 mm 6 mps 750 mmHg 82%
02:00 +5°C° 0 mm 6 mps 751 mmHg 83%
03:00 +5°C° 0 mm 6 mps 751 mmHg 84%
04:00 +5°C° 0 mm 6 mps 751 mmHg 85%
05:00 +6°C° 0 mm 5 mps 751 mmHg 85%
06:00 +6°C° 0 mm 5 mps 752 mmHg 85%
07:00 +6°C° 0 mm 4 mps 752 mmHg 85%
08:00 +6°C° 0 mm 4 mps 752 mmHg 82%
09:00 +7°C° 0 mm 4 mps 752 mmHg 79%
10:00 +7°C° 0 mm 4 mps 752 mmHg 76%
11:00 +7°C° 0 mm 4 mps 752 mmHg 76%
12:00 +8°C° 0 mm 4 mps 751 mmHg 76%
13:00 +8°C° 0 mm 4 mps 751 mmHg 75%
14:00 +8°C° 0.4 mm 4 mps 751 mmHg 81%
15:00 +8°C° 0.4 mm 3 mps 751 mmHg 86%
16:00 +8°C° 0.4 mm 3 mps 750 mmHg 91%
17:00 +8°C° 1.1 mm 3 mps 750 mmHg 93%
18:00 +8°C° 1.1 mm 2 mps 750 mmHg 95%
19:00 +8°C° 1.1 mm 2 mps 750 mmHg 96%
20:00 +8°C° 1.2 mm 2 mps 750 mmHg 97%
21:00 +9°C° 1.2 mm 2 mps 750 mmHg 97%
22:00 +9°C° 1.2 mm 2 mps 750 mmHg 97%
23:00 +9°C° 0.5 mm 2 mps 751 mmHg 97%

Day after tomorrow, 31 October, Saturday

Time Temperature Precipitation Wind Pressure Humidity
00:00 +10°C° 0.5 mm 1 mps 751 mmHg 96%
01:00 +9°C° 0.5 mm 1 mps 751 mmHg 96%
02:00 +9°C° 0.2 mm 1 mps 752 mmHg 96%
03:00 +8°C° 0.2 mm 2 mps 752 mmHg 96%
04:00 +8°C° 0.2 mm 2 mps 753 mmHg 95%
05:00 +7°C° 0 mm 2 mps 753 mmHg 96%
06:00 +7°C° 0 mm 2 mps 754 mmHg 96%
07:00 +7°C° 0 mm 1 mps 754 mmHg 96%
08:00 +8°C° 0 mm 1 mps 754 mmHg 90%
09:00 +10°C° 0 mm 1 mps 755 mmHg 85%
10:00 +11°C° 0 mm 1 mps 755 mmHg 80%
11:00 +11°C° 0 mm 1 mps 755 mmHg 75%
12:00 +12°C° 0 mm 1 mps 755 mmHg 70%
13:00 +13°C° 0 mm 1 mps 755 mmHg 65%
14:00 +12°C° 0 mm 1 mps 755 mmHg 68%
15:00 +11°C° 0 mm 1 mps 755 mmHg 71%
16:00 +11°C° 0 mm 1 mps 755 mmHg 73%
17:00 +10°C° 0 mm 1 mps 755 mmHg 75%
18:00 +8°C° 0 mm 2 mps 756 mmHg 77%
19:00 +8°C° 0 mm 2 mps 756 mmHg 80%
20:00 +7°C° 0 mm 2 mps 756 mmHg 80%
21:00 +7°C° 0 mm 2 mps 756 mmHg 81%
22:00 +7°C° 0 mm 2 mps 756 mmHg 82%
23:00 +5°C° 0 mm 3 mps 756 mmHg 83%

1 November, Sunday

Time Temperature Precipitation Wind Pressure Humidity
00:00 +5°C° 0 mm 3 mps 756 mmHg 85%
01:00 +5°C° 0 mm 3 mps 756 mmHg 87%
02:00 +5°C° 0 mm 3 mps 756 mmHg 88%
03:00 +5°C° 0 mm 3 mps 756 mmHg 90%
04:00 +4°C° 0 mm 3 mps 756 mmHg 91%
05:00 +4°C° 0 mm 3 mps 756 mmHg 91%
06:00 +4°C° 0 mm 3 mps 756 mmHg 92%
07:00 +4°C° 0 mm 3 mps 756 mmHg 92%
08:00 +5°C° 0 mm 4 mps 756 mmHg 86%
09:00 +7°C° 0 mm 4 mps 755 mmHg 81%
10:00 +8°C° 0 mm 5 mps 755 mmHg 75%
11:00 +9°C° 0 mm 5 mps 755 mmHg 71%
12:00 +10°C° 0 mm 5 mps 755 mmHg 67%
13:00 +10°C° 0 mm 5 mps 754 mmHg 64%
14:00 +10°C° 0 mm 5 mps 754 mmHg 66%
15:00 +9°C° 0 mm 5 mps 753 mmHg 69%
16:00 +8°C° 0 mm 4 mps 753 mmHg 72%
17:00 +8°C° 0 mm 4 mps 753 mmHg 73%
18:00 +7°C° 0 mm 4 mps 753 mmHg 75%
19:00 +7°C° 0 mm 4 mps 753 mmHg 77%
20:00 +7°C° 0 mm 4 mps 753 mmHg 81%
21:00 +7°C° 0 mm 4 mps 752 mmHg 86%
22:00 +8°C° 0 mm 3 mps 752 mmHg 90%
23:00 +8°C° 0 mm 3 mps 752 mmHg 91%

2 November, Monday

Time Temperature Precipitation Wind Pressure Humidity
00:00 +8°C° 0 mm 3 mps 752 mmHg 93%
01:00 +8°C° 0 mm 3 mps 751 mmHg 94%
02:00 +8°C° 0 mm 3 mps 751 mmHg 94%
03:00 +8°C° 0 mm 3 mps 751 mmHg 93%
04:00 +8°C° 0 mm 3 mps 751 mmHg 92%
05:00 +8°C° 0 mm 3 mps 751 mmHg 92%
06:00 +9°C° 0 mm 3 mps 751 mmHg 91%
07:00 +9°C° 0 mm 3 mps 751 mmHg 90%
08:00 +10°C° 0.1 mm 3 mps 751 mmHg 89%
09:00 +10°C° 0.1 mm 4 mps 751 mmHg 87%
10:00 +11°C° 0.1 mm 4 mps 751 mmHg 86%
11:00 +12°C° 0 mm 4 mps 751 mmHg 84%
12:00 +12°C° 0 mm 4 mps 751 mmHg 81%
13:00 +13°C° 0 mm 4 mps 751 mmHg 79%
14:00 +13°C° 0 mm 3 mps 751 mmHg 81%
15:00 +12°C° 0 mm 3 mps 751 mmHg 83%
16:00 +12°C° 0 mm 3 mps 751 mmHg 86%
17:00 +12°C° 0 mm 3 mps 751 mmHg 86%
18:00 +11°C° 0 mm 3 mps 751 mmHg 87%
19:00 +11°C° 0 mm 3 mps 751 mmHg 88%
20:00 +11°C° 0 mm 3 mps 751 mmHg 88%
21:00 +11°C° 0 mm 3 mps 752 mmHg 89%
22:00 +11°C° 0 mm 3 mps 752 mmHg 89%
23:00 +10°C° 0 mm 3 mps 752 mmHg 90%

3 November, Tuesday

Time Temperature Precipitation Wind Pressure Humidity
00:00 +10°C° 0 mm 3 mps 752 mmHg 90%
01:00 +10°C° 0 mm 3 mps 752 mmHg 90%
02:00 +10°C° 0 mm 3 mps 752 mmHg 89%
03:00 +10°C° 0 mm 3 mps 752 mmHg 88%
04:00 +10°C° 0 mm 3 mps 752 mmHg 88%
05:00 +10°C° 0 mm 3 mps 753 mmHg 86%
06:00 +10°C° 0 mm 3 mps 753 mmHg 84%
07:00 +10°C° 0 mm 3 mps 753 mmHg 82%
08:00 +10°C° 0 mm 4 mps 753 mmHg 77%
09:00 +11°C° 0 mm 4 mps 754 mmHg 72%
10:00 +11°C° 0 mm 4 mps 754 mmHg 67%
11:00 +11°C° 0 mm 4 mps 754 mmHg 68%
12:00 +11°C° 0 mm 4 mps 754 mmHg 68%
13:00 +11°C° 0 mm 4 mps 754 mmHg 68%
14:00 +11°C° 0 mm 3 mps 755 mmHg 70%
15:00 +11°C° 0 mm 3 mps 755 mmHg 71%
16:00 +11°C° 0 mm 3 mps 755 mmHg 72%
17:00 +10°C° 0 mm 3 mps 755 mmHg 75%
18:00 +10°C° 0 mm 4 mps 755 mmHg 77%
19:00 +8°C° 0 mm 4 mps 756 mmHg 79%
20:00 +8°C° 0 mm 4 mps 756 mmHg 82%
21:00 +7°C° 0 mm 4 mps 756 mmHg 84%
22:00 +8°C° 0 mm 3 mps 756 mmHg 87%
23:00 +7°C° 0 mm 3 mps 756 mmHg 88%
Show more